This demonstration page uses our WeatherBlox Daily Observations layout. Learn more.

38.89511, -77.03637

Hourly Observations for November 29, 2020

Temp ( °F °C ) Dew Point ( °F °C ) Humidity (%) Winds ( mph kmh ) Pressure ( in mb ) Visibility ( mi km ) Precip ( " mm )
12:52 am 00:52 Clear 45 7.2 31 -0.6 58 58 N 5 7 30.18 1022 10 16.0934 0 0
1:52 am 01:52 Clear 41 5 30 -1.1 65 65 SW 6 9 30.19 1022 10 16.0934 0 0
2:52 am 02:52 Clear 43 6.1 32 0 65 65 Calm 30.19 1022 10 16.0934 0 0
3:52 am 03:52 Clear 41 5 31 -0.6 67 67 Calm 30.17 1022 10 16.0934 0 0
4:52 am 04:52 Clear 41 5 32 0 70 70 Calm 30.19 1022 10 16.0934 0 0
5:52 am 05:52 Clear 39 3.9 31 -0.6 73 73 Calm 30.19 1022 10 16.0934 0 0
6:52 am 06:52 Clear 38 3.3 30 -1.1 73 73 SW 5 7 30.21 1023 10 16.0934 0 0
7:52 am 07:52 Sunny 40 4.4 30 -1.1 68 68 SW 3 6 30.23 1024 10 16.0934 0 0
8:52 am 08:52 Sunny 45 7.2 30 -1.1 56 56 Calm 30.23 1024 10 16.0934 0 0
9:52 am 09:52 Mostly Sunny 48 8.9 33 0.6 56 56 Calm 30.23 1024 10 16.0934 0 0
10:52 am 10:52 Mostly Sunny 51 10.6 32 0 48 48 SSE 7 11 30.22 1023 10 16.0934 0 0
11:52 am 11:52 Mostly Sunny 53 11.7 32 0 45 45 SSE 7 11 30.19 1022 10 16.0934 0 0
12:52 pm 12:52 Mostly Sunny 55 12.8 32 0 42 42 SSE 5 7 30.15 1021 10 16.0934 0 0
1:52 pm 13:52 Partly Cloudy 57 13.9 34 1.1 42 42 S 7 11 30.13 1020 10 16.0934 0 0
2:52 pm 14:52 Partly Cloudy 57 13.9 36 2.2 45 45 S 10 17 30.12 1020 10 16.0934 0 0
3:52 pm 15:52 Mostly Cloudy 55 12.8 38 3.3 53 53 S 9 15 30.11 1020 10 16.0934 0 0
4:52 pm 16:52 Cloudy 53 11.7 39 3.9 59 59 S 6 9 30.11 1020 10 16.0934 0 0
5:52 pm 17:52 Cloudy 53 11.7 39 3.9 59 59 SSE 5 7 30.11 1020 10 16.0934 0 0
6:52 pm 18:52 Cloudy 52 11.1 36 2.2 55 55 VRB 3 6 30.08 1019 10 16.0934 0 0
7:52 pm 19:52 Cloudy 50 10 38 3.3 63 63 SSE 7 11 30.08 1019 10 16.0934 0 0
8:52 pm 20:52 Cloudy 51 10.6 39 3.9 64 64 SSE 6 9 30.07 1018 10 16.0934 0 0
9:52 pm 21:52 Cloudy 50 10 43 6.1 77 77 S 6 9 30.06 1018 10 16.0934 0 0
10:52 pm 22:52 Cloudy 50 10 44 6.7 80 80 S 8 13 30.03 1017 10 16.0934 0 0
11:52 pm 23:52 Cloudy 52 11.1 45 7.2 77 77 SSE 6 9 30.01 1016 10 16.0934 0 0

Powered by AerisWeather